Temperature
14 15 15 16 13 12 14 15 15 16 16 17 18 18 17 17 17 18 18 18 18 18 17 17 16 17 17 17 17 17 17 17 17 17 17 17 17 17 17 16 16 16 16 16 16 16 16 16 15
14 14 15 15 12 13 14 14 15 16 17 17 17 17 17 17 17 17 17 17 17 17 17 17 16 16 16 17 17 17 17 17 17 17 17 17 17 16 16 16 16 16 16 16 16 16 16 15 15
14 14 15 11 12 13 16 15 14 16 17 17 17 17 17 17 17 17 17 17 17 17 17 16 16 16 16 16 16 17 17 17 17 17 17 17 16 16 16 16 16 16 16 16 16 16 15 15 15
14 14 14 11 13 13 15 16 15 15 17 17 17 16 16 17 17 17 17 17 17 17 17 16 16 16 16 16 16 16 16 16 16 17 17 16 16 16 16 16 16 16 16 16 16 15 15 15 15
14 14 12 12 13 13 13 14 16 16 16 16 16 15 16 17 17 17 17 17 17 17 16 16 16 16 16 16 16 16 16 16 16 16 16 16 16 16 16 16 16 16 15 15 15 15 15 15 15
13 11 11 12 13 13 13 15 16 16 15 16 16 15 16 17 17 17 17 16 16 16 16 16 16 16 16 16 16 16 16 16 16 16 16 16 16 16 16 16 16 15 15 15 15 15 15 15 15
12 10 11 12 13 14 15 16 16 15 15 16 17 15 15 16 16 16 16 16 16 16 16 16 16 16 16 16 16 16 16 16 16 16 16 16 16 16 16 15 15 15 15 15 15 15 15 15 14
13 10 11 11 12 14 15 16 16 16 16 17 17 15 15 16 16 16 15 15 15 16 16 16 16 15 16 16 16 16 16 16 16 15 15 15 15 15 15 15 15 15 15 15 15 15 14 14 14
12 10 11 11 12 14 15 15 16 16 16 16 16 17 17 16 16 15 15 15 15 15 15 15 15 15 15 15 15 15 15 15 15 15 15 15 15 15 15 15 15 15 15 15 14 14 14 14 14
12 10 11 12 13 14 14 14 15 15 14 15 16 16 16 16 15 15 15 15 15 15 15 15 15 15 15 15 15 15 15 15 15 15 15 15 15 15 15 15 14 14 14 14 14 14 14 14 14
11 10 11 12 13 14 14 14 14 15 14 15 15 16 15 15 15 15 15 15 15 15 15 15 15 15 15 15 15 14 14 15 15 15 15 14 14 14 14 14 14 14 14 14 14 14 14 14 14
10 10 12 13 13 14 13 14 14 14 15 16 16 16 16 15 15 15 15 15 15 15 15 15 14 14 14 14 14 14 14 14 14 14 14 14 14 14 14 14 14 14 13 13 13 13 13 13 13
10 11 12 12 13 13 13 13 13 14 15 15 15 15 15 15 15 15 15 15 15 15 15 14 14 14 14 14 14 14 14 14 14 14 14 14 14 14 14 14 13 13 13 13 13 13 13 13 13
10 10 11 12 12 13 12 12 12 13 15 15 15 15 15 15 15 15 15 15 15 15 14 14 14 14 14 14 14 14 14 14 14 14 14 14 14 14 13 13 13 13 13 13 13 13 13 13 13
11 10 10 11 11 12 12 11 11 13 14 14 14 14 14 14 14 15 15 15 15 15 14 14 14 14 14 14 14 14 14 13 13 13 13 13 13 13 13 13 13 13 13 12 12 12 12 12 12
9 9 9 10 10 11 11 11 11 12 13 12 13 13 14 14 14 15 15 15 15 15 14 14 14 14 14 14 14 13 13 13 13 13 13 13 13 13 13 13 13 12 12 12 12 12 12 12 12
8 8 8 9 10 10 10 10 10 11 11 11 12 13 13 14 14 14 14 14 14 14 14 14 14 14 14 13 13 13 13 13 13 13 13 13 13 13 13 12 12 12 12 12 12 12 11 12 11
7 7 8 8 9 9 9 9 9 10 10 10 11 12 13 13 14 14 14 14 14 14 14 14 14 14 13 13 13 13 13 13 13 13 13 12 12 12 12 12 12 12 12 11 11 11 11 11 11
7 7 8 8 9 9 8 8 8 9 9 9 10 11 12 13 13 14 14 14 14 13 13 13 13 13 13 13 13 13 13 13 13 12 12 12 12 12 12 12 12 11 11 11 11 11 11 11 10
7 7 8 8 9 9 8 8 8 8 8 9 10 10 12 12 13 13 13 13 13 13 13 13 13 13 13 13 13 13 13 12 12 12 12 12 12 12 12 11 11 11 11 11 10 10 10 10 10
7 7 7 8 8 8 8 8 8 8 8 9 10 10 11 12 12 13 13 13 13 13 13 13 13 13 13 13 12 12 12 12 12 12 12 12 12 11 11 11 11 11 11 10 10 10 10 10 10
7 7 8 8 7 6 7 6 7 7 7 7 8 9 10 11 12 12 13 13 13 13 13 12 12 12 12 12 12 12 12 12 12 12 11 11 11 11 11 11 11 10 10 10 10 10 9 9 9
7 7 7 7 6 6 6 6 6 6 7 7 7 8 9 10 11 12 12 12 12 12 12 12 12 12 12 12 12 12 12 11 11 11 11 11 11 11 10 10 10 10 10 10 9 9 9 9 9
6 6 6 5 5 5 5 6 6 5 6 7 6 7 8 9 10 11 11 12 12 12 12 12 11 11 11 11 11 11 11 11 11 11 11 10 10 10 10 10 10 10 9 9 9 9 9 9 8
6 6 5 5 5 5 5 5 6 6 6 6 6 6 7 8 9 10 10 10 11 11 11 11 11 11 11 11 11 11 11 11 11 10 10 10 10 10 10 9 9 9 9 9 9 9 8 8 8
5 5 5 5 5 5 5 5 5 6 5 6 6 6 6 7 8 9 9 10 10 10 10 10 10 10 10 10 10 10 10 10 10 10 10 10 9 9 9 9 9 9 9 8 8 8 8 8 7
5 5 5 4 4 4 4 4 5 5 5 5 5 5 5 6 7 8 8 9 9 9 9 10 10 10 10 10 10 10 9 9 9 9 9 9 9 9 9 8 8 8 8 8 8 8 7 7 7
5 4 4 4 4 5 5 5 5 5 4 4 4 4 4 5 6 7 7 8 8 9 9 9 9 9 9 9 9 9 9 9 9 9 8 8 8 8 8 8 8 8 8 8 7 7 7 7 6
3 4 4 3 3 4 5 5 5 4 4 3 3 4 4 5 5 6 6 7 7 7 8 8 8 8 8 8 8 8 8 8 8 8 8 8 8 7 7 7 7 7 7 7 7 6 6 6 6
3 3 3 3 3 2 3 4 4 3 3 3 3 3 4 4 5 5 6 6 6 6 7 7 7 7 7 7 7 7 7 7 7 7 7 7 7 7 7 6 6 6 6 6 6 6 6 5 5
Wind_Speed
4 3 3 4 5 4 4 5 4 3 3 1 2 4 7 6 5 4 1 6 8 9 10 13 15 14 14 14 14 14 14 14 14 14 14 13 13 12 12 12 11 12 12 12 12 12 12 12 12
1 2 4 5 5 2 6 5 6 5 4 3 3 3 4 1 0 4 3 5 9 10 10 13 15 15 14 14 14 14 14 14 13 13 13 13 12 12 11 11 11 11 11 11 11 11 11 11 11
0 3 4 4 5 7 6 5 6 2 2 2 3 2 3 3 3 4 4 8 9 9 10 13 15 15 14 14 13 13 13 13 13 12 12 12 11 11 11 11 11 11 11 11 11 10 11 11 10
3 4 4 3 6 7 5 3 3 2 1 2 4 2 0 1 3 4 7 9 10 7 9 13 16 15 14 14 13 13 13 12 12 12 11 11 11 10 10 10 10 10 10 10 10 10 10 10 10
4 4 3 2 7 6 5 4 3 2 2 2 5 4 0 4 2 7 9 10 10 8 8 13 15 15 14 14 13 12 12 11 11 11 10 10 10 10 10 10 10 10 9 9 9 9 9 9 9
4 4 4 6 7 5 4 3 2 2 2 2 5 5 1 2 5 8 9 9 8 8 8 11 14 14 14 14 13 12 12 11 11 10 10 9 9 9 9 9 9 9 9 8 8 8 8 8 8
4 4 5 6 5 4 3 2 4 4 3 4 6 5 1 1 4 7 8 7 7 8 8 8 10 12 13 13 13 12 11 11 10 10 10 10 9 9 9 9 8 8 8 8 7 7 7 7 7
4 4 4 5 5 5 2 1 1 4 4 3 5 7 6 5 7 8 8 7 7 6 6 7 8 9 10 11 12 12 11 10 10 10 9 9 9 8 8 8 8 7 7 7 7 6 6 6 6
4 3 6 7 7 5 1 1 2 1 4 2 1 3 3 10 10 10 8 6 6 6 5 6 6 7 8 9 10 10 10 10 9 9 9 9 7 7 7 7 7 6 6 6 6 6 5 6 5
4 6 8 5 4 3 1 1 1 2 2 1 2 3 6 10 12 12 11 10 9 8 6 4 6 6 7 7 8 8 8 8 8 8 8 8 7 6 6 6 6 6 6 6 6 6 5 5 5
6 7 4 3 2 2 1 0 1 4 3 4 5 5 8 9 11 11 11 10 9 8 7 5 5 6 7 6 6 6 7 7 7 7 8 7 7 6 6 5 4 5 5 5 4 5 5 4 4
4 4 3 2 1 1 1 1 0 3 4 3 4 8 10 12 12 12 11 9 7 7 7 6 6 6 6 6 5 5 5 5 5 6 7 7 5 4 4 4 4 4 4 4 4 3 3 3 3
5 3 3 2 1 1 1 1 2 4 4 1 3 7 9 10 8 6 6 7 7 7 6 6 6 6 6 6 5 5 4 4 5 6 6 7 5 3 3 3 3 3 3 3 2 2 2 2 1
5 3 2 2 2 1 2 3 2 5 1 1 4 6 7 8 7 6 6 7 7 7 7 6 6 6 6 5 4 4 4 5 5 5 5 6 5 4 3 2 2 2 2 2 2 2 1 1 1
3 3 3 3 3 2 2 5 6 5 1 2 3 4 5 5 6 7 8 8 8 7 6 6 6 6 6 5 5 4 4 5 4 4 5 5 5 5 4 2 1 1 1 2 2 2 2 1 1
3 3 4 4 4 3 5 9 5 2 4 4 4 4 4 5 6 6 6 6 6 6 6 5 5 6 6 5 5 4 4 5 4 4 4 5 5 5 4 2 1 2 2 2 1 1 1 0 1
3 5 6 3 3 4 6 7 4 2 4 5 5 5 5 4 5 5 5 6 6 7 7 6 5 6 6 5 5 4 4 4 4 4 4 4 5 5 4 2 2 3 2 1 1 1 1 1 1
7 6 5 6 3 4 6 7 6 3 4 6 6 5 6 6 8 6 5 5 5 5 5 6 5 5 5 4 4 3 3 2 3 3 3 4 4 4 4 2 2 3 2 1 1 1 0 0 1
5 5 5 4 2 3 7 9 8 6 4 6 6 7 7 8 6 4 5 5 5 5 5 6 6 5 5 4 4 3 2 2 1 2 3 3 3 4 3 2 2 2 2 2 2 1 0 0 0
4 5 4 2 1 2 4 9 8 6 6 7 8 8 8 7 4 4 4 5 6 6 6 6 6 6 6 5 4 3 3 2 2 1 1 2 3 3 3 3 2 2 2 2 2 2 1 0 0
6 7 6 3 2 2 2 7 6 5 4 4 5 6 6 8 7 6 5 6 6 6 7 7 6 6 5 5 4 4 3 3 1 1 1 1 2 3 3 3 2 2 2 2 3 3 3 1 0
8 6 6 4 2 2 1 4 6 5 4 4 5 4 5 5 5 6 6 6 7 7 6 6 5 5 5 6 6 6 4 3 3 2 2 1 2 2 2 2 2 2 2 2 2 2 2 2 1
5 4 4 3 3 1 1 3 7 3 4 6 5 5 5 4 5 6 7 7 7 5 5 5 5 4 4 5 6 5 4 3 2 2 2 1 1 1 1 2 2 2 2 2 2 2 2 2 2
5 5 4 3 2 4 6 6 6 4 5 4 4 3 3 3 2 3 4 5 4 4 4 4 5 4 4 4 5 5 5 4 4 3 2 1 1 0 0 1 2 2 2 2 2 2 2 2 2
5 6 2 1 2 6 4 5 7 5 3 3 4 3 2 1 1 2 3 4 5 5 5 5 5 4 4 4 4 4 5 5 5 4 3 2 1 1 2 1 2 2 1 2 2 2 2 2 2
6 7 6 6 6 3 3 6 6 3 3 2 1 1 2 2 1 2 3 4 5 5 5 5 5 4 4 4 3 3 4 3 3 3 3 3 3 2 2 2 1 1 1 1 1 1 1 1 2
5 4 4 4 2 1 4 4 5 2 3 3 4 4 4 3 2 2 2 3 4 4 4 5 5 4 3 3 3 3 3 3 2 2 2 2 1 1 1 1 1 1 1 1 1 1 1 1 1
4 5 4 4 5 4 3 4 3 2 2 3 3 3 4 4 3 3 2 3 3 3 3 4 4 3 3 3 3 3 3 3 2 2 2 1 1 1 1 1 1 1 1 1 1 1 0 1 1
3 3 3 4 3 4 3 4 1 2 1 0 1 2 3 3 3 3 3 3 4 4 4 4 4 4 3 3 3 3 3 3 3 2 2 2 1 2 1 1 1 1 1 1 1 1 0 1 1
2 3 4 4 3 2 3 3 2 1 0 1 2 3 3 4 4 4 4 5 5 5 4 4 3 3 3 3 3 4 4 4 4 3 2 2 2 1 1 1 1 1 0 1 1 1 1 1 2
Wind_Direction
351 23 69 59 61 60 235 237 216 222 211 211 149 142 151 158 167 181 125 140 134 139 146 144 138 134 131 128 125 122 119 115 113 112 110 109 108 106 103 101 97 93 90 89 91 90 88 87 85
358 59 60 67 106 185 252 232 216 214 183 130 83 100 109 154 157 121 139 150 138 139 141 142 138 134 131 128 127 125 122 118 116 114 112 111 110 109 107 103 99 95 92 90 92 93 92 91 87
45 55 91 94 152 194 224 218 212 225 200 157 98 71 135 161 161 167 167 146 131 134 139 140 138 135 133 131 129 126 123 123 121 119 117 115 113 111 108 104 101 97 94 93 92 93 94 92 89
88 57 65 113 213 224 227 229 181 160 133 113 129 102 102 4 188 164 136 136 130 129 134 140 139 137 135 133 131 128 126 124 124 124 121 119 116 113 108 105 102 99 97 95 93 93 94 94 92
66 90 107 206 236 245 243 242 191 167 162 126 134 138 101 350 89 123 132 135 136 131 127 140 140 140 138 135 132 130 129 126 125 123 121 119 117 115 111 107 104 101 100 99 96 95 95 94 93
76 88 145 214 238 258 257 226 189 176 159 142 139 136 209 22 119 132 132 131 132 131 120 134 141 140 137 135 134 132 130 126 124 122 120 119 117 116 112 108 105 103 102 101 98 96 95 97 96
129 137 188 204 230 251 245 193 176 175 179 192 159 134 209 162 140 127 122 118 118 121 119 122 133 136 137 135 133 131 130 128 125 122 118 113 111 111 112 109 106 104 104 102 99 97 95 98 99
142 137 182 209 210 234 247 180 170 170 190 161 148 153 192 188 139 117 112 111 115 120 121 120 121 126 128 130 131 131 130 127 124 122 119 114 110 108 109 107 107 105 104 101 97 95 94 93 95
113 138 204 209 201 226 227 149 6 58 116 108 164 183 189 137 132 125 124 125 133 134 129 127 122 118 122 127 132 129 128 126 122 119 118 112 103 102 106 105 107 106 103 99 96 92 92 85 83
141 197 218 212 202 212 207 171 221 96 79 93 62 50 107 135 147 151 155 160 161 162 156 142 135 127 122 127 123 120 121 121 118 116 115 110 104 103 104 106 104 104 102 100 94 88 85 77 72
175 205 214 224 226 197 171 227 287 142 200 211 191 168 146 153 160 166 171 170 171 169 164 159 147 133 126 119 119 115 114 114 114 117 119 114 105 99 95 97 96 97 97 92 87 80 76 73 73
188 224 210 223 209 167 175 150 21 204 223 240 205 166 162 167 175 178 178 176 168 167 171 163 153 140 132 125 124 124 120 118 116 124 127 120 107 98 97 96 95 94 97 92 83 82 76 68 66
210 230 224 250 261 237 189 222 232 256 275 309 134 152 170 178 184 182 174 170 169 173 178 172 161 153 144 133 132 128 128 131 136 133 135 133 124 126 114 105 104 98 98 100 90 84 77 60 46
206 211 246 255 235 243 210 267 227 255 252 110 144 169 181 187 183 171 171 176 181 181 180 176 170 161 148 146 144 141 138 137 132 135 143 146 142 137 129 119 111 109 123 124 115 106 94 47 31
155 177 279 255 210 218 149 277 234 239 184 185 199 197 194 201 190 189 188 186 185 180 175 178 175 161 156 156 155 144 144 141 132 140 148 149 150 147 142 141 146 146 143 120 95 81 76 51 12
126 156 224 248 189 186 165 248 256 232 174 211 221 221 216 219 212 206 193 187 181 173 173 177 174 165 163 159 154 145 140 137 135 142 146 154 157 156 143 150 171 152 127 112 116 125 119 299 288
164 197 213 245 201 169 185 239 260 247 181 220 230 229 228 232 234 219 201 190 184 179 175 171 164 166 167 159 148 140 132 133 133 136 140 154 160 160 148 155 154 138 114 110 152 109 173 236 286
198 193 199 211 216 173 209 242 266 275 214 232 240 238 231 229 234 221 204 194 183 177 171 165 159 163 155 142 131 125 123 128 120 129 147 158 160 162 151 140 132 123 130 152 173 179 206 228 251
176 175 200 226 221 190 227 251 262 262 243 244 245 239 233 235 240 218 199 183 168 166 166 167 163 166 156 150 152 153 171 169 154 146 154 161 157 153 144 146 140 142 170 184 186 170 148 315 20
177 193 207 262 263 202 250 267 262 247 234 229 230 232 232 233 234 214 191 174 175 176 175 172 172 172 173 171 162 155 151 152 153 140 130 151 148 149 150 152 161 164 171 175 185 162 149 346 81
206 195 196 197 10 8 322 295 270 261 241 240 237 232 229 220 219 208 191 189 183 183 183 182 180 175 172 157 128 111 91 78 91 119 178 145 146 150 148 151 158 166 171 192 201 187 173 190 262
223 199 181 170 141 271 162 270 280 269 275 260 254 244 237 233 220 207 195 190 193 196 185 177 173 168 163 154 152 153 159 172 192 183 185 154 125 136 149 152 160 170 181 195 209 197 194 175 204
190 159 158 168 162 273 224 216 278 292 263 263 260 252 246 236 217 207 198 193 190 182 172 167 156 155 155 156 158 157 160 170 153 138 135 131 114 114 134 148 152 172 189 200 198 193 195 189 194
138 96 72 56 96 243 215 192 270 245 237 270 283 278 261 247 218 198 184 165 157 148 143 144 142 143 145 148 150 156 161 156 147 151 159 168 173 177 169 161 165 176 186 199 201 195 190 201 196
131 128 125 185 222 239 193 192 246 254 251 249 264 286 284 251 163 142 142 144 142 141 143 141 142 140 140 142 147 158 162 162 168 174 178 179 185 219 232 208 198 197 195 192 182 186 199 199 197
185 162 170 187 204 248 182 219 248 273 301 295 279 19 32 36 70 121 146 149 148 147 144 139 141 140 137 140 145 143 146 153 166 173 179 188 198 212 216 200 193 184 169 165 158 170 198 191 197
155 187 159 133 122 199 237 270 295 7 14 26 42 48 38 34 52 86 111 127 137 142 147 146 141 128 130 136 130 129 136 138 146 158 165 178 190 186 150 163 168 152 133 133 134 145 200 184 204
142 143 121 144 165 215 246 246 244 311 345 16 39 47 34 33 46 59 82 109 120 128 118 106 109 111 108 108 121 126 124 124 126 120 126 130 134 124 118 121 125 118 114 116 123 125 197 159 240
103 125 141 146 168 174 212 254 232 237 278 54 38 44 43 38 39 53 65 81 95 92 93 91 88 88 89 94 99 101 103 111 114 112 112 106 88 103 109 122 128 131 128 136 136 164 190 200 260
142 155 147 162 205 185 178 258 343 327 343 102 68 49 42 44 41 51 63 68 73 77 80 83 84 86 88 95 94 90 89 92 93 89 86 94 91 91 100 97 97 92 111 140 160 208 239 233 256
Height
1488 1489 1491 1494 1499 1509 1507 1499 1494 1492 1491 1489 1489 1490 1492 1494 1498 1502 1497 1497 1500 1503 1507 1510 1513 1515 1517 1519 1521 1523 1524 1526 1527 1528 1529 1530 1531 1532 1532 1533 1534 1535 1536 1536 1537 1537 1538 1538 1539
1488 1490 1493 1494 1504 1512 1505 1495 1492 1489 1487 1488 1489 1489 1490 1492 1493 1494 1494 1497 1501 1504 1507 1510 1513 1515 1518 1520 1522 1523 1525 1526 1527 1528 1529 1530 1531 1532 1533 1534 1535 1536 1536 1537 1538 1538 1539 1539 1540
1488 1490 1493 1496 1504 1505 1496 1488 1487 1486 1486 1487 1488 1489 1490 1491 1492 1494 1495 1498 1501 1504 1507 1510 1513 1516 1518 1520 1522 1524 1525 1526 1528 1529 1530 1531 1532 1533 1533 1534 1535 1536 1537 1537 1538 1539 1539 1540 1540
1488 1491 1493 1498 1499 1494 1489 1484 1484 1485 1486 1486 1487 1490 1491 1492 1493 1494 1496 1499 1502 1505 1508 1511 1513 1516 1518 1520 1522 1524 1525 1527 1528 1529 1530 1531 1532 1533 1534 1535 1536 1536 1537 1538 1539 1539 1540 1540 1541
1487 1489 1495 1499 1495 1489 1485 1484 1484 1484 1485 1486 1487 1489 1490 1492 1493 1495 1497 1500 1502 1505 1508 1511 1513 1516 1518 1520 1522 1524 1525 1527 1528 1529 1530 1531 1532 1533 1534 1535 1536 1537 1537 1538 1539 1539 1540 1540 1541
1487 1489 1498 1499 1492 1487 1484 1482 1483 1484 1485 1486 1487 1488 1490 1492 1493 1496 1498 1500 1503 1506 1508 1511 1514 1516 1518 1520 1522 1524 1525 1527 1528 1529 1530 1531 1532 1533 1534 1535 1536 1537 1537 1538 1539 1540 1540 1541 1541
1486 1490 1493 1492 1490 1486 1482 1481 1482 1483 1484 1485 1486 1488 1489 1491 1494 1496 1499 1501 1504 1506 1509 1511 1514 1516 1518 1520 1522 1523 1525 1526 1528 1529 1530 1531 1532 1533 1534 1535 1536 1537 1537 1538 1539 1539 1540 1541 1541
1483 1488 1490 1490 1488 1484 1480 1480 1480 1481 1482 1484 1485 1486 1488 1490 1493 1496 1498 1501 1504 1506 1508 1511 1513 1516 1518 1520 1521 1523 1525 1526 1527 1529 1530 1531 1532 1533 1534 1535 1536 1536 1537 1538 1539 1539 1540 1540 1541
1482 1489 1489 1487 1485 1481 1478 1479 1480 1480 1481 1482 1484 1485 1486 1489 1492 1495 1498 1500 1503 1506 1508 1510 1513 1515 1517 1519 1521 1523 1524 1525 1527 1528 1529 1530 1531 1532 1533 1534 1535 1536 1537 1537 1538 1539 1540 1540 1541
1480 1486 1482 1479 1478 1478 1478 1478 1479 1480 1481 1482 1483 1484 1485 1488 1491 1493 1496 1498 1501 1504 1507 1510 1512 1514 1516 1518 1520 1522 1523 1525 1526 1527 1528 1530 1531 1532 1533 1533 1534 1535 1536 1537 1537 1538 1539 1540 1540
1477 1479 1477 1476 1476 1476 1477 1478 1478 1479 1481 1480 1480 1482 1484 1487 1490 1492 1495 1498 1500 1503 1506 1509 1511 1513 1515 1517 1519 1521 1522 1524 1525 1526 1528 1529 1530 1531 1532 1533 1533 1534 1535 1536 1536 1537 1538 1539 1539
1476 1475 1475 1475 1475 1476 1476 1477 1478 1478 1478 1479 1480 1481 1483 1485 1488 1491 1493 1497 1500 1502 1505 1507 1510 1512 1514 1516 1518 1520 1521 1523 1524 1525 1526 1528 1529 1530 1531 1531 1532 1533 1534 1535 1536 1536 1537 1538 1538
1474 1473 1473 1474 1474 1475 1476 1476 1477 1476 1477 1477 1479 1480 1482 1484 1487 1491 1494 1496 1499 1501 1504 1506 1508 1511 1513 1515 1517 1518 1520 1521 1523 1524 1525 1526 1528 1529 1530 1530 1531 1532 1533 1534 1534 1535 1536 1536 1537
1471 1472 1473 1473 1473 1474 1475 1475 1476 1474 1476 1476 1477 1479 1481 1484 1486 1489 1492 1494 1497 1499 1502 1505 1507 1509 1511 1513 1515 1517 1518 1520 1521 1523 1524 1525 1526 1527 1528 1529 1530 1531 1532 1532 1533 1534 1534 1535 1535
1470 1473 1473 1472 1472 1473 1474 1476 1474 1472 1474 1475 1476 1478 1480 1482 1485 1487 1490 1492 1495 1498 1500 1503 1505 1507 1509 1511 1513 1515 1517 1518 1520 1521 1522 1524 1525 1526 1527 1528 1529 1529 1530 1531 1531 1532 1532 1533 1533
1470 1473 1475 1471 1471 1472 1477 1476 1471 1471 1472 1473 1474 1476 1478 1480 1483 1485 1488 1491 1494 1496 1498 1501 1503 1505 1507 1509 1511 1513 1515 1517 1518 1519 1521 1522 1523 1524 1525 1526 1527 1528 1528 1529 1529 1530 1530 1530 1531
1472 1475 1475 1472 1469 1470 1474 1473 1470 1469 1470 1471 1472 1473 1475 1477 1480 1483 1485 1488 1491 1493 1496 1498 1500 1503 1505 1507 1509 1511 1513 1515 1516 1518 1519 1520 1521 1522 1523 1524 1525 1526 1526 1527 1527 1527 1528 1528 1528
1471 1473 1473 1472 1469 1471 1472 1471 1469 1468 1468 1469 1469 1471 1472 1474 1476 1479 1482 1485 1488 1491 1493 1495 1498 1500 1502 1505 1507 1509 1511 1512 1514 1515 1517 1518 1519 1520 1521 1522 1523 1523 1524 1524 1524 1525 1525 1525 1525
1467 1470 1471 1470 1468 1470 1471 1470 1467 1466 1467 1467 1467 1467 1469 1470 1473 1476 1479 1481 1484 1487 1489 1492 1494 1497 1499 1501 1503 1506 1508 1510 1512 1513 1515 1516 1517 1518 1518 1519 1520 1521 1521 1521 1522 1522 1522 1522 1522
1466 1469 1470 1469 1468 1469 1471 1469 1465 1463 1463 1462 1463 1463 1465 1467 1469 1472 1475 1477 1480 1483 1486 1488 1491 1494 1496 1499 1501 1503 1505 1507 1509 1511 1512 1513 1514 1515 1516 1517 1517 1518 1518 1518 1519 1519 1519 1519 1520
1465 1468 1469 1469 1469 1469 1471 1468 1464 1460 1459 1459 1459 1459 1461 1463 1465 1467 1470 1473 1476 1479 1482 1485 1488 1490 1493 1496 1498 1500 1503 1505 1506 1508 1509 1511 1512 1513 1513 1514 1514 1515 1515 1515 1515 1516 1516 1516 1517
1464 1463 1465 1467 1472 1477 1474 1478 1465 1460 1458 1456 1456 1456 1457 1459 1461 1463 1466 1468 1471 1475 1478 1481 1485 1488 1490 1493 1495 1497 1499 1501 1503 1505 1506 1508 1509 1510 1510 1511 1511 1512 1512 1512 1512 1513 1513 1513 1513
1460 1461 1464 1468 1473 1478 1476 1479 1467 1461 1458 1455 1454 1453 1454 1455 1457 1459 1461 1464 1467 1471 1475 1478 1481 1484 1487 1490 1492 1495 1497 1498 1500 1502 1504 1505 1506 1507 1507 1508 1508 1508 1509 1509 1509 1509 1510 1510 1510
1459 1463 1467 1472 1475 1479 1474 1477 1468 1463 1456 1453 1452 1452 1451 1452 1453 1455 1458 1461 1464 1468 1471 1475 1478 1481 1484 1487 1489 1492 1494 1496 1497 1499 1500 1502 1503 1504 1504 1505 1505 1505 1505 1505 1506 1506 1506 1506 1507
1458 1466 1475 1478 1481 1477 1471 1472 1464 1455 1454 1452 1451 1451 1450 1451 1451 1453 1455 1458 1461 1464 1468 1471 1475 1478 1481 1484 1487 1489 1491 1493 1494 1496 1497 1498 1499 1500 1501 1501 1501 1501 1502 1502 1502 1502 1502 1503 1503
1458 1461 1470 1475 1476 1475 1472 1470 1460 1453 1452 1451 1450 1450 1450 1450 1450 1452 1454 1456 1459 1462 1465 1469 1472 1475 1478 1481 1484 1486 1488 1490 1491 1493 1494 1495 1496 1497 1497 1497 1498 1498 1498 1498 1499 1498 1499 1499 1499
1458 1461 1463 1472 1477 1476 1471 1466 1457 1451 1451 1450 1450 1449 1450 1450 1451 1452 1453 1455 1458 1461 1464 1467 1470 1473 1476 1478 1481 1483 1485 1487 1488 1489 1491 1492 1493 1493 1494 1494 1494 1494 1495 1495 1495 1495 1495 1495 1495
1455 1458 1465 1470 1472 1468 1465 1465 1459 1455 1454 1452 1452 1451 1451 1451 1451 1452 1453 1455 1457 1460 1463 1466 1469 1471 1474 1476 1478 1480 1482 1484 1485 1486 1487 1489 1489 1490 1490 1491 1491 1491 1491 1491 1491 1492 1491 1491 1491
1458 1461 1461 1467 1468 1468 1465 1463 1456 1455 1455 1454 1454 1453 1453 1453 1452 1453 1454 1455 1457 1460 1462 1465 1468 1470 1472 1474 1476 1478 1480 1481 1482 1483 1484 1485 1486 1487 1487 1487 1487 1487 1488 1488 1488 1488 1488 1487 1487
1457 1459 1462 1466 1471 1472 1470 1467 1455 1455 1454 1454 1455 1455 1455 1454 1454 1454 1455 1456 1458 1460 1462 1465 1467 1469 1471 1473 1474 1476 1478 1479 1480 1481 1482 1483 1483 1484 1484 1484 1484 1484 1484 1484 1484 1484 1483 1483 1482